Location: Karaa?a�
(36.7158°N, 30.4165°E)
Time: 06:09:26
(UTC+00:00)

Cosmos 1726 Rocket - Visible Passes

Search period start: 11 August 2020 00:00
Search period end: 21 August 2020 00:00
Orbit: 603 x 629 km, 82.5° (Epoch: 10 August)

Date Brightness Start Highest point End Pass type
(mag) Time Alt. Az. Time Alt. Az. Time Alt. Az.
11 Aug 5.8 00:48:51 12° SE 00:51:54 22° E 00:55:20 10° NE visible
11 Aug 4.7 02:25:58 11° SW 02:29:31 27° WNW 02:33:20 10° NNW visible
12 Aug 4.7 01:05:48 22° SSE 01:08:11 41° E 01:12:23 10° NNE visible
12 Aug 5.4 02:43:36 10° WSW 02:46:10 15° WNW 02:48:45 10° NW visible
13 Aug 3.6 01:22:43 35° S 01:24:34 80° E 01:29:02 10° N visible
14 Aug 6.4 00:02:28 10° ESE 00:03:46 11° E 00:05:07 10° ENE visible
14 Aug 3.7 01:39:35 37° SW 01:41:00 52° W 01:45:24 10° N visible
15 Aug 5.6 00:19:18 20° E 00:19:58 21° E 00:23:19 10° NE visible
15 Aug 4.6 01:56:25 25° WSW 01:57:33 28° WNW 02:01:24 10° NNW visible
16 Aug 4.7 00:36:07 39° E 00:36:15 39° E 00:40:24 10° NNE visible
16 Aug 5.3 02:13:14 15° W 02:14:12 15° WNW 02:16:53 10° NW visible
17 Aug 3.7 00:52:54 73° NE 00:52:54 73° NE 00:57:04 10° N visible
17 Aug 6.5 23:32:32 10° ENE 23:32:32 10° ENE 23:32:55 10° ENE visible
18 Aug 4.0 01:09:39 50° NW 01:09:39 50° NW 01:13:26 10° N visible
18 Aug 6.0 23:49:16 18° ENE 23:49:16 18° ENE 23:51:18 10° NE visible
19 Aug 4.8 01:26:22 27° WNW 01:26:22 27° WNW 01:29:29 10° NNW visible
20 Aug 5.5 00:05:57 27° NE 00:05:57 27° NE 00:08:25 10° NNE visible
20 Aug 5.5 01:43:04 15° WNW 01:43:04 15° WNW 01:44:59 10° NW visible
